Kirksville, MO

3:52 AM CDT on September 23, 2017 (GMT -0500)
Kirksville Regional

Weather History for KIRK - February, 2014

Change the Weather History Date:

Sunday, February 9, 2014

  Actual Average Record
Temperature  
Mean Temperature 14 °F 28 °F  
Max Temperature 23 °F 37 °F 71 °F (1943)
Min Temperature 4 °F 19 °F -17 °F (1979)
Degree Days  
Heating Degree Days 51 37  
Month to date heating degree days 505 338  
Since 1 July heating degree days 4191 3885  
Cooling Degree Days 0 0  
Month to date cooling degree days 0 0  
Year to date cooling degree days 0 0  
Moisture  
Dew Point 7 °F    
Average Humidity 70    
Maximum Humidity 84    
Minimum Humidity 56    
Precipitation  
Precipitation T in 0.06 in 0.97 in (2001)
Month to date precipitation 0.81 0.49  
Year to date precipitation 1.67 1.76  
Sea Level Pressure  
Sea Level Pressure 30.32 in    
Wind  
Wind Speed 8 mph (NNW)    
Max Wind Speed 16 mph    
Max Gust Speed 19 mph    
Visibility 8 miles    
Events      
T = Trace of Precipitation, MM = Missing Value Source: NWS Daily Summary

Daily Weather History Graph

Daily Weather History Graph

Search for Another Location

Airport or City:

Trip Planner

Search our weather history database for the weather conditions in past years. The results will help you decide how hot, cold, wet, or windy it might be!

Date:

Astronomy

Feb. 09, 2014 Rise Set
Actual Time 7:10 AM CST 5:38 PM CST
Civil Twilight 6:42 AM CST 6:07 PM CST
Nautical Twilight 6:10 AM CST 6:39 PM CST
Astronomical Twilight 5:38 AM CST 7:10 PM CST
Moon 1:19 PM CST (2/9) 3:15 AM CST (2/9)
Length of Visible Light 11h 24m
Length of Day
10h 28m
Waxing Gibbous, 77% of the Moon is Illuminated
Feb 9
Waxing Gibbous
Feb 14
Full
Feb 22
Last Quarter
Mar 1
New
Mar 8
First Quarter

Hourly Weather History & Observations

Time (CST) Temp. Windchill Dew Point Humidity Pressure Visibility Wind Dir Wind Speed Gust Speed Precip Events Conditions
12:20 AM 21.9 °F - 17.1 °F 82% 30.14 in 6.0 mi Calm Calm - N/A   Haze
12:55 AM 21.9 °F - 17.1 °F 82% 30.20 in 6.0 mi Calm Calm - N/A   Haze
1:55 AM 21.0 °F 14.6 °F 16.0 °F 81% 30.22 in 6.0 mi NW 4.6 mph - N/A   Haze
2:55 AM 21.0 °F 12.4 °F 16.0 °F 81% 30.23 in 5.0 mi NNW 6.9 mph - N/A   Haze
3:55 AM 19.9 °F 12.1 °F 16.0 °F 85% 30.23 in 4.0 mi NNW 5.8 mph - 0.00 in   Overcast
4:55 AM 18.0 °F 9.8 °F 12.9 °F 81% 30.25 in 6.0 mi North 5.8 mph - N/A   Haze
5:21 AM 18.0 °F 12.7 °F 14.0 °F 84% 30.21 in 5.0 mi NNW 3.5 mph - N/A   Mostly Cloudy
5:55 AM 18.0 °F 7.7 °F 14.0 °F 84% 30.25 in 5.0 mi North 8.1 mph - N/A   Overcast
6:55 AM 18.0 °F 8.7 °F 12.0 °F 78% 30.28 in 6.0 mi NNW 6.9 mph - N/A   Haze
7:34 AM 14.0 °F 2.0 °F 6.1 °F 71% 30.23 in 7.0 mi North 9.2 mph - N/A   Scattered Clouds
7:55 AM 14.0 °F 1.2 °F 6.1 °F 71% 30.29 in 8.0 mi North 10.4 mph - N/A   Clear
8:55 AM 15.1 °F 2.5 °F 7.0 °F 70% 30.31 in 6.0 mi North 10.4 mph - N/A   Haze
9:55 AM 15.1 °F 4.2 °F 7.0 °F 70% 30.32 in 7.0 mi NNW 8.1 mph - N/A   Clear
10:55 AM 16.0 °F 5.3 °F 8.1 °F 71% 30.33 in 7.0 mi North 8.1 mph - N/A   Clear
11:55 AM 16.0 °F 4.4 °F 7.0 °F 68% 30.32 in 8.0 mi North 9.2 mph - N/A   Scattered Clouds
12:55 PM 17.1 °F 6.6 °F 7.0 °F 65% 30.33 in 8.0 mi NW 8.1 mph - N/A   Overcast
1:55 PM 17.1 °F 5.8 °F 7.0 °F 65% 30.34 in 9.0 mi NW 9.2 mph - N/A   Overcast
2:55 PM 17.1 °F 5.8 °F 5.0 °F 59% 30.34 in 10.0 mi NW 9.2 mph - N/A   Overcast
3:55 PM 15.1 °F 1.8 °F 3.0 °F 59% 30.35 in 10.0 mi NNW 11.5 mph - N/A   Overcast
4:55 PM 14.0 °F 2.0 °F 1.0 °F 56% 30.36 in 10.0 mi NNW 9.2 mph - N/A   Overcast
5:55 PM 12.9 °F 1.6 °F 1.0 °F 59% 30.38 in 10.0 mi North 8.1 mph - N/A   Overcast
6:55 PM 12.0 °F 1.5 °F 1.9 °F 64% 30.41 in 10.0 mi North 6.9 mph - N/A   Overcast
7:55 PM 10.0 °F -1.9 °F -0.0 °F 64% 30.43 in 10.0 mi North 8.1 mph - N/A   Overcast
8:55 PM 9.0 °F -4.2 °F -0.0 °F 67% 30.44 in 10.0 mi North 9.2 mph - N/A   Overcast
9:55 PM 8.1 °F -7.7 °F -2.9 °F 61% 30.45 in 10.0 mi North 12.7 mph - N/A   Overcast
10:55 PM 5.0 °F -13.6 °F -5.1 °F 63% 30.48 in 10.0 mi North 16.1 mph - N/A   Clear
11:55 PM 3.9 °F -10.4 °F -6.0 °F 64% 30.48 in 10.0 mi North 9.2 mph - N/A   Clear